Time,TemperatureF,DewpointF,PressureIn,WindDirection,WindDirectionDegrees,WindSpeedMPH,WindSpeedGustMPH,Humidity,HourlyPrecipIn,Conditions,Clouds,dailyrainin,SoftwareType,DateUTC
2013-04-24 00:03:00,43.2,40.5,30.27,North,-999,-999.0,-999.0,90,0.00,,,0.00,meteohub,2013-04-24 07:03:00,
2013-04-24 00:08:00,43.0,40.3,30.27,North,-999,-999.0,-999.0,90,0.00,,,0.00,meteohub,2013-04-24 07:08:00,
2013-04-24 00:13:00,42.8,40.1,30.27,North,-999,-999.0,-999.0,90,0.00,,,0.00,meteohub,2013-04-24 07:13:00,
2013-04-24 00:18:00,42.8,40.1,30.27,North,-999,-999.0,-999.0,90,0.00,,,0.00,meteohub,2013-04-24 07:18:00,
2013-04-24 00:23:00,42.6,39.9,30.27,North,-999,-999.0,-999.0,90,0.00,,,0.00,meteohub,2013-04-24 07:23:00,
2013-04-24 00:28:00,42.6,39.9,30.27,North,-999,-999.0,-999.0,90,0.00,,,0.00,meteohub,2013-04-24 07:28:00,
2013-04-24 00:33:00,42.4,39.7,30.27,North,-999,-999.0,-999.0,90,0.00,,,0.00,meteohub,2013-04-24 07:33:00,
2013-04-24 00:38:00,42.4,39.9,30.27,North,-999,-999.0,-999.0,91,0.00,,,0.00,meteohub,2013-04-24 07:38:00,
2013-04-24 00:43:00,42.4,40.3,30.27,North,-999,-999.0,-999.0,92,0.00,,,0.00,meteohub,2013-04-24 07:43:00,
2013-04-24 00:48:00,42.3,39.7,30.27,North,-999,-999.0,-999.0,91,0.00,,,0.00,meteohub,2013-04-24 07:48:00,
2013-04-24 00:53:00,42.1,39.9,30.27,North,-999,-999.0,-999.0,92,0.00,,,0.00,meteohub,2013-04-24 07:53:00,
2013-04-24 00:58:00,42.1,39.9,30.27,North,-999,-999.0,-999.0,92,0.00,,,0.00,meteohub,2013-04-24 07:58:00,
2013-04-24 01:04:00,42.1,39.9,30.27,North,-999,-999.0,-999.0,92,0.00,,,0.00,meteohub,2013-04-24 08:04:00,
2013-04-24 01:08:00,42.1,40.3,30.27,North,-999,-999.0,-999.0,93,0.00,,,0.00,meteohub,2013-04-24 08:08:00,
2013-04-24 01:13:00,41.9,40.1,30.27,North,-999,-999.0,-999.0,93,0.00,,,0.00,meteohub,2013-04-24 08:13:00,
2013-04-24 01:18:00,41.9,40.1,30.27,North,-999,-999.0,-999.0,93,0.00,,,0.00,meteohub,2013-04-24 08:18:00,
2013-04-24 01:23:00,41.9,40.1,30.27,North,-999,-999.0,-999.0,93,0.00,,,0.00,meteohub,2013-04-24 08:23:00,
2013-04-24 01:28:00,41.7,39.9,30.27,North,-999,-999.0,-999.0,93,0.00,,,0.00,meteohub,2013-04-24 08:28:00,
2013-04-24 01:33:00,41.5,39.9,30.28,North,-999,-999.0,-999.0,94,0.00,,,0.00,meteohub,2013-04-24 08:33:00,
2013-04-24 01:39:00,41.4,40.1,30.27,North,-999,-999.0,-999.0,95,0.00,,,0.00,meteohub,2013-04-24 08:39:00,
2013-04-24 01:44:00,41.4,40.1,30.27,North,-999,-999.0,-999.0,95,0.00,,,0.00,meteohub,2013-04-24 08:44:00,
2013-04-24 01:49:00,41.4,40.1,30.27,North,-999,-999.0,-999.0,95,0.00,,,0.00,meteohub,2013-04-24 08:49:00,
2013-04-24 01:54:00,41.4,40.1,30.27,North,-999,-999.0,-999.0,95,0.00,,,0.00,meteohub,2013-04-24 08:54:00,
2013-04-24 01:59:00,41.2,39.9,30.27,North,-999,-999.0,-999.0,95,0.00,,,0.00,meteohub,2013-04-24 08:59:00,
2013-04-24 02:04:00,41.2,39.9,30.27,North,-999,-999.0,-999.0,95,0.00,,,0.00,meteohub,2013-04-24 09:04:00,
2013-04-24 02:09:00,41.0,39.9,30.28,North,-999,-999.0,-999.0,96,0.00,,,0.00,meteohub,2013-04-24 09:09:00,
2013-04-24 02:14:00,40.8,39.7,30.28,North,-999,-999.0,-999.0,96,0.00,,,0.00,meteohub,2013-04-24 09:14:00,
2013-04-24 02:19:00,40.8,39.7,30.28,North,-999,-999.0,-999.0,96,0.00,,,0.00,meteohub,2013-04-24 09:19:00,
2013-04-24 02:24:00,40.8,40.1,30.27,North,-999,-999.0,-999.0,97,0.00,,,0.00,meteohub,2013-04-24 09:24:00,
2013-04-24 02:29:00,40.6,39.9,30.27,North,-999,-999.0,-999.0,97,0.00,,,0.00,meteohub,2013-04-24 09:29:00,
2013-04-24 02:34:00,40.8,40.1,30.27,North,-999,-999.0,-999.0,97,0.00,,,0.00,meteohub,2013-04-24 09:34:00,
2013-04-24 02:39:00,40.8,40.1,30.27,North,-999,-999.0,-999.0,97,0.00,,,0.00,meteohub,2013-04-24 09:39:00,
2013-04-24 02:44:00,41.0,40.3,30.27,North,-999,-999.0,-999.0,97,0.00,,,0.00,meteohub,2013-04-24 09:44:00,
2013-04-24 02:49:00,40.8,40.1,30.27,North,-999,-999.0,-999.0,97,0.00,,,0.00,meteohub,2013-04-24 09:49:00,
2013-04-24 02:54:00,40.8,40.1,30.28,North,-999,-999.0,-999.0,97,0.00,,,0.00,meteohub,2013-04-24 09:54:00,
2013-04-24 02:59:00,40.6,40.1,30.27,North,-999,-999.0,-999.0,98,0.00,,,0.00,meteohub,2013-04-24 09:59:00,
2013-04-24 03:04:00,40.6,40.1,30.27,North,-999,-999.0,-999.0,98,0.00,,,0.00,meteohub,2013-04-24 10:04:00,
2013-04-24 03:09:00,40.8,40.3,30.27,North,-999,-999.0,-999.0,98,0.00,,,0.00,meteohub,2013-04-24 10:09:00,
2013-04-24 03:14:00,40.6,40.1,30.27,North,-999,-999.0,-999.0,98,0.00,,,0.00,meteohub,2013-04-24 10:14:00,
2013-04-24 03:19:00,40.6,40.1,30.27,North,-999,-999.0,-999.0,98,0.00,,,0.00,meteohub,2013-04-24 10:19:00,
2013-04-24 03:24:00,40.6,40.1,30.27,North,-999,-999.0,-999.0,98,0.00,,,0.00,meteohub,2013-04-24 10:24:00,
2013-04-24 03:29:00,40.3,39.7,30.27,North,-999,-999.0,-999.0,98,0.00,,,0.00,meteohub,2013-04-24 10:29:00,
2013-04-24 03:34:00,40.3,39.7,30.27,North,-999,-999.0,-999.0,98,0.00,,,0.00,meteohub,2013-04-24 10:34:00,
2013-04-24 03:39:00,40.1,39.6,30.27,North,-999,-999.0,-999.0,98,0.00,,,0.00,meteohub,2013-04-24 10:39:00,
2013-04-24 03:44:00,40.1,39.9,30.28,North,-999,-999.0,-999.0,99,0.00,,,0.00,meteohub,2013-04-24 10:44:00,
2013-04-24 03:49:00,40.1,39.9,30.28,North,-999,-999.0,-999.0,99,0.00,,,0.00,meteohub,2013-04-24 10:49:00,
2013-04-24 03:54:00,40.1,39.9,30.28,North,-999,-999.0,-999.0,99,0.00,,,0.00,meteohub,2013-04-24 10:54:00,
2013-04-24 03:59:00,40.1,39.9,30.28,North,-999,-999.0,-999.0,99,0.00,,,0.00,meteohub,2013-04-24 10:59:00,
2013-04-24 04:04:00,40.1,39.9,30.28,North,-999,-999.0,-999.0,99,0.00,,,0.00,meteohub,2013-04-24 11:04:00,
2013-04-24 04:09:00,39.9,39.7,30.28,North,-999,-999.0,-999.0,99,0.00,,,0.00,meteohub,2013-04-24 11:09:00,
2013-04-24 04:14:00,39.7,39.6,30.28,North,-999,-999.0,-999.0,99,0.00,,,0.00,meteohub,2013-04-24 11:14:00,
2013-04-24 04:19:00,39.6,39.4,30.28,North,-999,-999.0,-999.0,99,0.00,,,0.00,meteohub,2013-04-24 11:19:00,
2013-04-24 04:24:00,39.6,39.4,30.28,North,-999,-999.0,-999.0,99,0.00,,,0.00,meteohub,2013-04-24 11:24:00,
2013-04-24 04:29:00,39.4,39.2,30.28,North,-999,-999.0,-999.0,99,0.00,,,0.00,meteohub,2013-04-24 11:29:00,
2013-04-24 04:34:00,39.0,38.8,30.28,North,-999,-999.0,-999.0,99,0.00,,,0.00,meteohub,2013-04-24 11:34:00,
2013-04-24 04:39:00,38.7,38.5,30.28,North,-999,-999.0,-999.0,99,0.00,,,0.00,meteohub,2013-04-24 11:39:00,
2013-04-24 04:44:00,38.5,38.3,30.28,North,-999,-999.0,-999.0,99,0.00,,,0.00,meteohub,2013-04-24 11:44:00,
2013-04-24 04:49:00,38.3,38.1,30.28,North,-999,-999.0,-999.0,99,0.00,,,0.00,meteohub,2013-04-24 11:49:00,
2013-04-24 04:55:00,38.1,37.9,30.28,North,-999,-999.0,-999.0,99,0.00,,,0.00,meteohub,2013-04-24 11:55:00,
2013-04-24 05:00:00,38.1,37.9,30.29,North,-999,-999.0,-999.0,99,0.00,,,0.00,meteohub,2013-04-24 12:00:00,
2013-04-24 05:05:00,37.9,37.8,30.29,North,-999,-999.0,-999.0,99,0.00,,,0.00,meteohub,2013-04-24 12:05:00,
2013-04-24 05:10:00,37.8,37.6,30.28,North,-999,-999.0,-999.0,99,0.00,,,0.00,meteohub,2013-04-24 12:10:00,
2013-04-24 05:15:00,37.6,37.4,30.28,North,-999,-999.0,-999.0,99,0.00,,,0.00,meteohub,2013-04-24 12:15:00,
2013-04-24 05:20:00,37.6,37.4,30.29,North,-999,-999.0,-999.0,99,0.00,,,0.00,meteohub,2013-04-24 12:20:00,
2013-04-24 05:25:00,37.6,37.4,30.29,North,-999,-999.0,-999.0,99,0.00,,,0.00,meteohub,2013-04-24 12:25:00,
2013-04-24 05:30:00,37.6,37.4,30.28,North,-999,-999.0,-999.0,99,0.00,,,0.00,meteohub,2013-04-24 12:30:00,
2013-04-24 05:35:00,37.4,37.2,30.28,North,-999,-999.0,-999.0,99,0.00,,,0.00,meteohub,2013-04-24 12:35:00,
2013-04-24 05:40:00,37.6,37.4,30.28,North,-999,-999.0,-999.0,99,0.00,,,0.00,meteohub,2013-04-24 12:40:00,
2013-04-24 05:45:00,37.4,37.2,30.28,North,-999,-999.0,-999.0,99,0.00,,,0.00,meteohub,2013-04-24 12:45:00,
2013-04-24 05:50:00,37.2,37.0,30.28,North,-999,-999.0,-999.0,99,0.00,,,0.00,meteohub,2013-04-24 12:50:00,
2013-04-24 05:55:00,37.2,37.0,30.28,North,-999,-999.0,-999.0,99,0.00,,,0.00,meteohub,2013-04-24 12:55:00,
2013-04-24 06:00:00,37.4,37.2,30.28,North,-999,-999.0,-999.0,99,0.00,,,0.00,meteohub,2013-04-24 13:00:00,
2013-04-24 06:05:00,37.2,37.0,30.28,North,-999,-999.0,-999.0,99,0.00,,,0.00,meteohub,2013-04-24 13:05:00,
2013-04-24 06:10:00,37.0,36.9,30.28,North,-999,-999.0,-999.0,99,0.00,,,0.00,meteohub,2013-04-24 13:10:00,
2013-04-24 06:15:00,36.9,36.7,30.28,North,-999,-999.0,-999.0,99,0.00,,,0.00,meteohub,2013-04-24 13:15:00,
2013-04-24 06:20:00,36.9,36.7,30.28,North,-999,-999.0,-999.0,99,0.00,,,0.00,meteohub,2013-04-24 13:20:00,
2013-04-24 06:25:00,37.0,36.9,30.28,North,-999,-999.0,-999.0,99,0.00,,,0.00,meteohub,2013-04-24 13:25:00,
2013-04-24 06:30:00,37.2,37.0,30.28,North,-999,-999.0,-999.0,99,0.00,,,0.00,meteohub,2013-04-24 13:30:00,
2013-04-24 06:35:00,37.2,37.0,30.28,North,-999,-999.0,-999.0,99,0.00,,,0.00,meteohub,2013-04-24 13:35:00,
2013-04-24 06:40:00,37.2,37.0,30.28,North,-999,-999.0,-999.0,99,0.00,,,0.00,meteohub,2013-04-24 13:40:00,
2013-04-24 06:45:00,37.4,37.2,30.28,North,-999,-999.0,-999.0,99,0.00,,,0.00,meteohub,2013-04-24 13:45:00,
2013-04-24 06:50:00,37.8,37.6,30.28,North,-999,-999.0,-999.0,99,0.00,,,0.00,meteohub,2013-04-24 13:50:00,
2013-04-24 06:55:00,37.9,37.8,30.28,North,-999,-999.0,-999.0,99,0.00,,,0.00,meteohub,2013-04-24 13:55:00,
2013-04-24 07:00:00,38.3,38.1,30.27,North,-999,-999.0,-999.0,99,0.00,,,0.00,meteohub,2013-04-24 14:00:00,
2013-04-24 07:05:00,38.7,38.5,30.28,North,-999,-999.0,-999.0,99,0.00,,,0.00,meteohub,2013-04-24 14:05:00,
2013-04-24 07:10:00,39.2,39.0,30.28,North,-999,-999.0,-999.0,99,0.00,,,0.00,meteohub,2013-04-24 14:10:00,
2013-04-24 07:15:00,39.6,39.4,30.28,North,-999,-999.0,-999.0,99,0.00,,,0.00,meteohub,2013-04-24 14:15:00,
2013-04-24 07:20:00,40.1,39.9,30.28,North,-999,-999.0,-999.0,99,0.00,,,0.00,meteohub,2013-04-24 14:20:00,
2013-04-24 07:25:00,40.5,40.3,30.28,North,-999,-999.0,-999.0,99,0.00,,,0.00,meteohub,2013-04-24 14:25:00,
2013-04-24 07:30:00,41.2,41.0,30.28,North,-999,-999.0,-999.0,99,0.00,,,0.00,meteohub,2013-04-24 14:30:00,
2013-04-24 07:35:00,41.7,41.5,30.28,North,-999,-999.0,-999.0,99,0.00,,,0.00,meteohub,2013-04-24 14:35:00,
2013-04-24 07:40:00,41.9,41.7,30.28,West,270,0.0,-999.0,99,0.00,,,0.00,meteohub,2013-04-24 14:40:00,
2013-04-24 07:45:00,43.0,42.8,30.28,West,270,0.0,0.0,99,0.00,,,0.00,meteohub,2013-04-24 14:45:00,
2013-04-24 07:50:00,41.7,41.5,30.28,ENE,68,0.0,0.0,99,0.00,,,0.00,meteohub,2013-04-24 14:50:00,
2013-04-24 07:55:00,42.6,42.4,30.28,ENE,68,0.0,1.0,99,0.00,,,0.00,meteohub,2013-04-24 14:55:00,
2013-04-24 08:00:00,46.8,46.6,30.28,ENE,68,0.0,1.0,99,0.00,,,0.00,meteohub,2013-04-24 15:00:00,
2013-04-24 08:05:00,46.8,46.0,30.28,West,270,1.0,1.0,97,0.00,,,0.00,meteohub,2013-04-24 15:05:00,
2013-04-24 08:10:00,45.9,44.4,30.28,SE,135,0.0,1.0,95,0.00,,,0.00,meteohub,2013-04-24 15:10:00,
2013-04-24 08:15:00,47.3,44.8,30.28,WSW,248,0.0,1.0,91,0.00,,,0.00,meteohub,2013-04-24 15:15:00,
2013-04-24 08:20:00,49.5,46.0,30.28,West,270,0.0,1.0,88,0.00,,,0.00,meteohub,2013-04-24 15:20:00,
2013-04-24 08:25:00,48.2,44.2,30.27,WSW,248,0.0,1.0,86,0.00,,,0.00,meteohub,2013-04-24 15:25:00,
2013-04-24 08:30:00,50.0,45.7,30.27,WSW,248,0.0,1.0,85,0.00,,,0.00,meteohub,2013-04-24 15:30:00,
2013-04-24 08:35:00,50.4,44.8,30.27,WSW,248,1.0,1.0,81,0.00,,,0.00,meteohub,2013-04-24 15:35:00,
2013-04-24 08:40:00,52.2,45.5,30.27,West,270,1.0,1.0,78,0.00,,,0.00,meteohub,2013-04-24 15:40:00,
2013-04-24 08:45:00,50.5,43.9,30.27,West,270,1.0,1.0,78,0.00,,,0.00,meteohub,2013-04-24 15:45:00,
2013-04-24 08:50:00,53.4,46.4,30.27,West,270,0.0,1.0,77,0.00,,,0.00,meteohub,2013-04-24 15:50:00,
2013-04-24 08:55:00,54.1,45.7,30.27,West,270,2.0,2.0,73,0.00,,,0.00,meteohub,2013-04-24 15:55:00,
2013-04-24 09:00:00,59.2,49.8,30.27,North,0,1.0,2.0,71,0.00,,,0.00,meteohub,2013-04-24 16:00:00,
2013-04-24 09:05:00,54.3,44.8,30.27,WSW,248,2.0,2.0,70,0.00,,,0.00,meteohub,2013-04-24 16:05:00,
2013-04-24 09:10:00,55.0,45.1,30.27,WSW,248,2.0,2.0,69,0.00,,,0.00,meteohub,2013-04-24 16:10:00,
2013-04-24 09:15:00,56.7,45.9,30.27,WSW,248,0.0,2.0,67,0.00,,,0.00,meteohub,2013-04-24 16:15:00,
2013-04-24 09:20:00,61.5,49.3,30.27,North,0,1.0,2.0,64,0.00,,,0.00,meteohub,2013-04-24 16:20:00,
2013-04-24 09:25:00,58.1,45.5,30.27,WSW,248,0.0,2.0,63,0.00,,,0.00,meteohub,2013-04-24 16:25:00,
2013-04-24 09:30:00,59.2,46.9,30.27,West,270,0.0,2.0,64,0.00,,,0.00,meteohub,2013-04-24 16:30:00,
2013-04-24 09:35:00,63.0,49.8,30.27,West,270,2.0,2.0,62,0.00,,,0.00,meteohub,2013-04-24 16:35:00,
2013-04-24 09:41:00,58.3,44.4,30.26,WSW,248,1.0,2.0,60,0.00,,,0.00,meteohub,2013-04-24 16:41:00,
2013-04-24 09:46:00,59.9,43.7,30.26,West,270,0.0,2.0,55,0.00,,,0.00,meteohub,2013-04-24 16:46:00,
2013-04-24 09:50:00,58.1,42.1,30.26,SSW,203,2.0,3.0,55,0.00,,,0.00,meteohub,2013-04-24 16:50:00,
2013-04-24 09:56:00,58.8,42.3,30.26,North,0,2.0,3.0,54,0.00,,,0.00,meteohub,2013-04-24 16:56:00,
2013-04-24 10:01:00,58.8,41.7,30.26,North,0,2.0,2.0,53,0.00,,,0.00,meteohub,2013-04-24 17:01:00,
2013-04-24 10:06:00,60.1,43.9,30.26,WSW,248,1.0,2.0,55,0.00,,,0.00,meteohub,2013-04-24 17:06:00,
2013-04-24 10:11:00,60.4,43.2,30.26,North,0,2.0,2.0,53,0.00,,,0.00,meteohub,2013-04-24 17:11:00,
2013-04-24 10:16:00,59.0,42.4,30.25,SSW,203,1.0,3.0,54,0.00,,,0.00,meteohub,2013-04-24 17:16:00,
2013-04-24 10:21:00,62.6,45.7,30.26,West,270,1.0,3.0,54,0.00,,,0.00,meteohub,2013-04-24 17:21:00,
2013-04-24 10:26:00,59.2,42.6,30.26,South,180,0.0,2.0,54,0.00,,,0.00,meteohub,2013-04-24 17:26:00,
2013-04-24 10:31:00,55.0,38.3,30.25,ENE,68,2.0,4.0,53,0.00,,,0.00,meteohub,2013-04-24 17:31:00,
2013-04-24 10:36:00,60.3,43.0,30.25,WSW,248,2.0,4.0,53,0.00,,,0.00,meteohub,2013-04-24 17:36:00,
2013-04-24 10:41:00,62.6,45.7,30.25,West,270,1.0,4.0,54,0.00,,,0.00,meteohub,2013-04-24 17:41:00,
2013-04-24 10:46:00,63.3,43.9,30.25,North,0,2.0,3.0,49,0.00,,,0.00,meteohub,2013-04-24 17:46:00,
2013-04-24 10:51:00,67.3,46.9,30.25,SE,135,2.0,3.0,48,0.00,,,0.00,meteohub,2013-04-24 17:51:00,
2013-04-24 10:56:00,65.5,45.3,30.25,North,0,2.0,2.0,48,0.00,,,0.00,meteohub,2013-04-24 17:56:00,
2013-04-24 11:01:00,68.2,46.6,30.25,West,270,1.0,2.0,46,0.00,,,0.00,meteohub,2013-04-24 18:01:00,
2013-04-24 11:06:00,68.7,45.9,30.24,North,0,2.0,4.0,44,0.00,,,0.00,meteohub,2013-04-24 18:06:00,
2013-04-24 11:11:00,69.1,46.8,30.25,WSW,248,1.0,4.0,45,0.00,,,0.00,meteohub,2013-04-24 18:11:00,
2013-04-24 11:16:00,60.3,36.5,30.25,West,270,3.0,4.0,41,0.00,,,0.00,meteohub,2013-04-24 18:16:00,
2013-04-24 11:21:00,71.6,45.3,30.25,West,270,2.0,3.0,39,0.00,,,0.00,meteohub,2013-04-24 18:21:00,
2013-04-24 11:26:00,71.4,44.4,30.25,North,0,2.0,3.0,38,0.00,,,0.00,meteohub,2013-04-24 18:26:00,
2013-04-24 11:31:00,71.8,44.8,30.24,SSW,203,3.0,3.0,38,0.00,,,0.00,meteohub,2013-04-24 18:31:00,
2013-04-24 11:36:00,73.4,47.7,30.23,West,270,2.0,3.0,40,0.00,,,0.00,meteohub,2013-04-24 18:36:00,
2013-04-24 11:41:00,74.5,46.6,30.23,SW,225,1.0,3.0,37,0.00,,,0.00,meteohub,2013-04-24 18:41:00,
2013-04-24 11:46:00,74.7,45.9,30.23,North,0,2.0,3.0,36,0.00,,,0.00,meteohub,2013-04-24 18:46:00,
2013-04-24 11:51:00,74.8,44.6,30.23,NNE,23,2.0,2.0,34,0.00,,,0.00,meteohub,2013-04-24 18:51:00,
2013-04-24 11:56:00,74.5,45.9,30.23,West,270,1.0,2.0,36,0.00,,,0.00,meteohub,2013-04-24 18:56:00,
2013-04-24 12:01:00,73.9,46.0,30.23,WSW,248,1.0,2.0,37,0.00,,,0.00,meteohub,2013-04-24 19:01:00,
2013-04-24 12:06:00,75.9,47.8,30.22,West,270,1.0,2.0,37,0.00,,,0.00,meteohub,2013-04-24 19:06:00,
2013-04-24 12:11:00,77.0,46.4,30.22,West,270,0.0,2.0,34,0.00,,,0.00,meteohub,2013-04-24 19:11:00,
2013-04-24 12:16:00,76.6,46.2,30.22,North,0,0.0,2.0,34,0.00,,,0.00,meteohub,2013-04-24 19:16:00,
2013-04-24 12:21:00,76.8,46.4,30.21,North,0,2.0,2.0,34,0.00,,,0.00,meteohub,2013-04-24 19:21:00,
2013-04-24 12:26:00,76.8,44.8,30.21,WSW,248,1.0,4.0,32,0.00,,,0.00,meteohub,2013-04-24 19:26:00,
2013-04-24 12:31:00,76.5,48.2,30.21,WSW,248,2.0,4.0,37,0.00,,,0.00,meteohub,2013-04-24 19:31:00,
2013-04-24 12:36:00,75.9,43.9,30.21,West,270,2.0,4.0,32,0.00,,,0.00,meteohub,2013-04-24 19:36:00,
2013-04-24 12:41:00,75.7,46.2,30.21,North,0,2.0,2.0,35,0.00,,,0.00,meteohub,2013-04-24 19:41:00,
2013-04-24 12:46:00,75.6,43.7,30.20,North,0,3.0,3.0,32,0.00,,,0.00,meteohub,2013-04-24 19:46:00,
2013-04-24 12:51:00,74.8,43.9,30.20,West,270,2.0,3.0,33,0.00,,,0.00,meteohub,2013-04-24 19:51:00,
2013-04-24 12:56:00,75.7,45.3,30.19,West,270,2.0,3.0,34,0.00,,,0.00,meteohub,2013-04-24 19:56:00,
2013-04-24 13:01:00,76.6,44.6,30.20,ENE,68,2.0,3.0,32,0.00,,,0.00,meteohub,2013-04-24 20:01:00,
2013-04-24 13:06:00,76.1,45.0,30.19,West,270,2.0,4.0,33,0.00,,,0.00,meteohub,2013-04-24 20:06:00,
2013-04-24 13:11:00,77.0,45.0,30.19,ENE,68,2.0,4.0,32,0.00,,,0.00,meteohub,2013-04-24 20:11:00,
2013-04-24 13:16:00,77.0,45.0,30.19,West,270,2.0,4.0,32,0.00,,,0.00,meteohub,2013-04-24 20:16:00,
2013-04-24 13:21:00,77.4,43.5,30.19,North,0,2.0,3.0,30,0.00,,,0.00,meteohub,2013-04-24 20:21:00,
2013-04-24 13:26:00,77.7,43.9,30.19,WSW,248,2.0,3.0,30,0.00,,,0.00,meteohub,2013-04-24 20:26:00,
2013-04-24 13:31:00,78.4,45.3,30.18,North,0,1.0,3.0,31,0.00,,,0.00,meteohub,2013-04-24 20:31:00,
2013-04-24 13:36:00,79.0,45.0,30.18,West,270,2.0,3.0,30,0.00,,,0.00,meteohub,2013-04-24 20:36:00,
2013-04-24 13:41:00,79.0,44.1,30.18,North,0,2.0,3.0,29,0.00,,,0.00,meteohub,2013-04-24 20:41:00,
2013-04-24 13:46:00,78.8,44.8,30.18,West,270,2.0,3.0,30,0.00,,,0.00,meteohub,2013-04-24 20:46:00,
2013-04-24 13:51:00,71.2,38.3,30.18,NE,45,2.0,3.0,30,0.00,,,0.00,meteohub,2013-04-24 20:51:00,
2013-04-24 13:56:00,79.0,44.1,30.17,West,270,1.0,3.0,29,0.00,,,0.00,meteohub,2013-04-24 20:56:00,
2013-04-24 14:01:00,84.7,48.9,30.18,SE,135,2.0,4.0,29,0.00,,,0.00,meteohub,2013-04-24 21:01:00,
2013-04-24 14:06:00,79.7,44.6,30.17,South,180,2.0,4.0,29,0.00,,,0.00,meteohub,2013-04-24 21:06:00,
2013-04-24 14:11:00,79.7,41.7,30.17,North,0,4.0,4.0,26,0.00,,,0.00,meteohub,2013-04-24 21:11:00,
2013-04-24 14:16:00,78.3,39.6,30.17,East,90,2.0,5.0,25,0.00,,,0.00,meteohub,2013-04-24 21:16:00,
2013-04-24 14:21:00,77.5,39.0,30.17,North,0,4.0,5.0,25,0.00,,,0.00,meteohub,2013-04-24 21:21:00,
2013-04-24 14:26:00,82.8,43.3,30.17,North,0,2.0,5.0,25,0.00,,,0.00,meteohub,2013-04-24 21:26:00,
2013-04-24 14:31:00,77.7,40.1,30.16,North,0,3.0,4.0,26,0.00,,,0.00,meteohub,2013-04-24 21:31:00,
2013-04-24 14:36:00,77.4,39.7,30.17,North,0,2.0,4.0,26,0.00,,,0.00,meteohub,2013-04-24 21:36:00,
2013-04-24 14:41:00,77.4,38.8,30.16,North,0,2.0,3.0,25,0.00,,,0.00,meteohub,2013-04-24 21:41:00,
2013-04-24 14:46:00,72.0,34.2,30.16,NE,45,3.0,3.0,25,0.00,,,0.00,meteohub,2013-04-24 21:46:00,
2013-04-24 14:51:00,77.2,39.6,30.15,North,0,2.0,3.0,26,0.00,,,0.00,meteohub,2013-04-24 21:51:00,
2013-04-24 14:56:00,77.4,38.8,30.16,NE,45,2.0,3.0,25,0.00,,,0.00,meteohub,2013-04-24 21:56:00,
2013-04-24 15:01:00,76.1,38.7,30.15,North,0,2.0,4.0,26,0.00,,,0.00,meteohub,2013-04-24 22:01:00,
2013-04-24 15:06:00,76.1,39.7,30.14,North,0,2.0,4.0,27,0.00,,,0.00,meteohub,2013-04-24 22:06:00,
2013-04-24 15:11:00,76.3,39.9,30.14,WSW,248,2.0,4.0,27,0.00,,,0.00,meteohub,2013-04-24 22:11:00,
2013-04-24 15:16:00,75.7,39.4,30.14,North,0,2.0,2.0,27,0.00,,,0.00,meteohub,2013-04-24 22:16:00,
2013-04-24 15:21:00,74.3,38.1,30.13,North,0,3.0,3.0,27,0.00,,,0.00,meteohub,2013-04-24 22:21:00,
2013-04-24 15:26:00,74.3,39.0,30.14,SSW,203,2.0,3.0,28,0.00,,,0.00,meteohub,2013-04-24 22:26:00,
2013-04-24 15:31:00,75.0,37.8,30.13,North,0,3.0,3.0,26,0.00,,,0.00,meteohub,2013-04-24 22:31:00,
2013-04-24 15:36:00,74.5,37.4,30.13,West,270,2.0,3.0,26,0.00,,,0.00,meteohub,2013-04-24 22:36:00,
2013-04-24 15:41:00,74.7,37.6,30.13,West,270,2.0,3.0,26,0.00,,,0.00,meteohub,2013-04-24 22:41:00,
2013-04-24 15:46:00,73.9,36.9,30.13,West,270,2.0,3.0,26,0.00,,,0.00,meteohub,2013-04-24 22:46:00,
2013-04-24 15:51:00,74.1,36.0,30.13,North,0,2.0,2.0,25,0.00,,,0.00,meteohub,2013-04-24 22:51:00,
2013-04-24 15:56:00,75.0,35.8,30.13,SE,135,3.0,4.0,24,0.00,,,0.00,meteohub,2013-04-24 22:56:00,
2013-04-24 16:01:00,73.8,35.8,30.12,West,270,1.0,4.0,25,0.00,,,0.00,meteohub,2013-04-24 23:01:00,
2013-04-24 16:06:00,72.7,34.9,30.12,North,0,2.0,4.0,25,0.00,,,0.00,meteohub,2013-04-24 23:06:00,
2013-04-24 16:11:00,72.0,34.2,30.12,North,0,4.0,4.0,25,0.00,,,0.00,meteohub,2013-04-24 23:11:00,
2013-04-24 16:16:00,72.7,34.9,30.11,North,0,2.0,4.0,25,0.00,,,0.00,meteohub,2013-04-24 23:16:00,
2013-04-24 16:21:00,71.6,34.0,30.11,West,270,2.0,4.0,25,0.00,,,0.00,meteohub,2013-04-24 23:21:00,
2013-04-24 16:26:00,73.8,36.7,30.11,North,0,2.0,4.0,26,0.00,,,0.00,meteohub,2013-04-24 23:26:00,
2013-04-24 16:31:00,73.8,37.8,30.11,North,0,2.0,2.0,27,0.00,,,0.00,meteohub,2013-04-24 23:31:00,
2013-04-24 16:36:00,73.4,35.4,30.10,North,0,2.0,3.0,25,0.00,,,0.00,meteohub,2013-04-24 23:36:00,
2013-04-24 16:41:00,72.9,35.1,30.10,WSW,248,1.0,3.0,25,0.00,,,0.00,meteohub,2013-04-24 23:41:00,
2013-04-24 16:46:00,73.2,36.3,30.10,North,0,1.0,3.0,26,0.00,,,0.00,meteohub,2013-04-24 23:46:00,
2013-04-24 16:51:00,72.9,36.9,30.10,North,0,1.0,3.0,27,0.00,,,0.00,meteohub,2013-04-24 23:51:00,
2013-04-24 16:56:00,73.2,38.1,30.09,North,0,2.0,2.0,28,0.00,,,0.00,meteohub,2013-04-24 23:56:00,
2013-04-24 17:01:00,73.0,37.0,30.09,North,0,2.0,4.0,27,0.00,,,0.00,meteohub,2013-04-25 00:01:00,
2013-04-24 17:06:00,73.8,37.8,30.09,North,0,1.0,4.0,27,0.00,,,0.00,meteohub,2013-04-25 00:06:00,
2013-04-24 17:11:00,73.0,37.9,30.08,North,0,0.0,4.0,28,0.00,,,0.00,meteohub,2013-04-25 00:11:00,
2013-04-24 17:16:00,72.7,37.8,30.08,WSW,248,2.0,2.0,28,0.00,,,0.00,meteohub,2013-04-25 00:16:00,
2013-04-24 17:21:00,74.5,40.1,30.08,WSW,248,2.0,2.0,29,0.00,,,0.00,meteohub,2013-04-25 00:21:00,
2013-04-24 17:26:00,73.4,37.4,30.08,North,0,2.0,3.0,27,0.00,,,0.00,meteohub,2013-04-25 00:26:00,
2013-04-24 17:31:00,71.8,36.0,30.08,SE,135,3.0,3.0,27,0.00,,,0.00,meteohub,2013-04-25 00:31:00,
2013-04-24 17:36:00,71.4,37.6,30.08,North,0,2.0,3.0,29,0.00,,,0.00,meteohub,2013-04-25 00:36:00,
2013-04-24 17:41:00,72.0,38.8,30.08,West,270,2.0,3.0,30,0.00,,,0.00,meteohub,2013-04-25 00:41:00,
2013-04-24 17:46:00,72.7,39.4,30.08,North,0,2.0,3.0,30,0.00,,,0.00,meteohub,2013-04-25 00:46:00,
2013-04-24 17:51:00,71.8,37.8,30.08,SE,135,2.0,3.0,29,0.00,,,0.00,meteohub,2013-04-25 00:51:00,
2013-04-24 17:56:00,69.4,36.7,30.08,North,0,1.0,3.0,30,0.00,,,0.00,meteohub,2013-04-25 00:56:00,
2013-04-24 18:01:00,68.5,37.6,30.08,North,0,0.0,2.0,32,0.00,,,0.00,meteohub,2013-04-25 01:01:00,
2013-04-24 18:06:00,69.3,37.4,30.07,North,0,4.0,4.0,31,0.00,,,0.00,meteohub,2013-04-25 01:06:00,
2013-04-24 18:11:00,59.4,29.5,30.08,North,0,2.0,4.0,32,0.00,,,0.00,meteohub,2013-04-25 01:11:00,
2013-04-24 18:17:00,67.6,39.7,30.08,North,0,1.0,4.0,36,0.00,,,0.00,meteohub,2013-04-25 01:17:00,
2013-04-24 18:22:00,67.1,40.6,30.07,North,0,1.0,2.0,38,0.00,,,0.00,meteohub,2013-04-25 01:22:00,
2013-04-24 18:27:00,65.8,38.1,30.07,West,270,1.0,2.0,36,0.00,,,0.00,meteohub,2013-04-25 01:27:00,
2013-04-24 18:32:00,64.4,36.9,30.07,West,270,1.0,2.0,36,0.00,,,0.00,meteohub,2013-04-25 01:32:00,
2013-04-24 18:37:00,62.2,36.3,30.07,North,0,2.0,2.0,38,0.00,,,0.00,meteohub,2013-04-25 01:37:00,
2013-04-24 18:42:00,63.3,38.7,30.07,West,270,0.0,2.0,40,0.00,,,0.00,meteohub,2013-04-25 01:42:00,
2013-04-24 18:47:00,62.4,38.5,30.07,North,0,0.0,2.0,41,0.00,,,0.00,meteohub,2013-04-25 01:47:00,
2013-04-24 18:52:00,62.2,39.4,30.07,North,0,0.0,2.0,43,0.00,,,0.00,meteohub,2013-04-25 01:52:00,
2013-04-24 18:57:00,61.7,39.0,30.07,North,-999,-999.0,1.0,43,0.00,,,0.00,meteohub,2013-04-25 01:57:00,
2013-04-24 19:02:00,60.3,38.8,30.06,North,0,0.0,0.0,45,0.00,,,0.00,meteohub,2013-04-25 02:02:00,
2013-04-24 19:07:00,59.7,38.3,30.06,North,0,0.0,0.0,45,0.00,,,0.00,meteohub,2013-04-25 02:07:00,
2013-04-24 19:12:00,59.4,38.7,30.07,North,0,0.0,0.0,46,0.00,,,0.00,meteohub,2013-04-25 02:12:00,
2013-04-24 19:17:00,57.7,36.5,30.06,North,0,0.0,0.0,45,0.00,,,0.00,meteohub,2013-04-25 02:17:00,
2013-04-24 19:22:00,62.1,40.5,30.06,North,-999,-999.0,0.0,45,0.00,,,0.00,meteohub,2013-04-25 02:22:00,
2013-04-24 19:27:00,58.6,38.5,30.06,West,270,0.0,1.0,47,0.00,,,0.00,meteohub,2013-04-25 02:27:00,
2013-04-24 19:32:00,58.5,38.3,30.06,West,270,0.0,1.0,47,0.00,,,0.00,meteohub,2013-04-25 02:32:00,
2013-04-24 19:37:00,57.7,38.1,30.06,West,270,0.0,1.0,48,0.00,,,0.00,meteohub,2013-04-25 02:37:00,
2013-04-24 19:42:00,57.2,38.3,30.06,West,270,0.0,0.0,49,0.00,,,0.00,meteohub,2013-04-25 02:42:00,
2013-04-24 19:47:00,56.8,37.9,30.06,West,270,0.0,0.0,49,0.00,,,0.00,meteohub,2013-04-25 02:47:00,
2013-04-24 19:52:00,56.7,38.3,30.06,West,270,0.0,0.0,50,0.00,,,0.00,meteohub,2013-04-25 02:52:00,
2013-04-24 19:57:00,56.1,38.3,30.06,West,270,0.0,0.0,51,0.00,,,0.00,meteohub,2013-04-25 02:57:00,
2013-04-24 20:02:00,55.8,38.5,30.06,West,270,0.0,0.0,52,0.00,,,0.00,meteohub,2013-04-25 03:02:00,
2013-04-24 20:07:00,55.4,38.1,30.06,West,270,0.0,0.0,52,0.00,,,0.00,meteohub,2013-04-25 03:07:00,
2013-04-24 20:12:00,55.0,38.7,30.05,West,270,0.0,0.0,54,0.00,,,0.00,meteohub,2013-04-25 03:12:00,
2013-04-24 20:17:00,54.7,38.8,30.05,West,270,0.0,0.0,55,0.00,,,0.00,meteohub,2013-04-25 03:17:00,
2013-04-24 20:22:00,54.1,38.8,30.05,West,270,0.0,0.0,56,0.00,,,0.00,meteohub,2013-04-25 03:22:00,
2013-04-24 20:27:00,53.8,38.5,30.05,West,270,0.0,0.0,56,0.00,,,0.00,meteohub,2013-04-25 03:27:00,
2013-04-24 20:32:00,53.6,38.3,30.05,West,270,0.0,0.0,56,0.00,,,0.00,meteohub,2013-04-25 03:32:00,
2013-04-24 20:37:00,53.2,37.9,30.05,West,270,0.0,0.0,56,0.00,,,0.00,meteohub,2013-04-25 03:37:00,
2013-04-24 20:42:00,52.9,38.1,30.05,West,270,0.0,0.0,57,0.00,,,0.00,meteohub,2013-04-25 03:42:00,
2013-04-24 20:47:00,52.7,37.9,30.05,West,270,0.0,0.0,57,0.00,,,0.00,meteohub,2013-04-25 03:47:00,
2013-04-24 20:52:00,52.7,38.3,30.04,West,270,0.0,0.0,58,0.00,,,0.00,meteohub,2013-04-25 03:52:00,
2013-04-24 20:57:00,52.3,38.5,30.04,West,270,0.0,0.0,59,0.00,,,0.00,meteohub,2013-04-25 03:57:00,
2013-04-24 21:01:00,51.6,38.1,30.05,West,270,0.0,0.0,60,0.00,,,0.00,meteohub,2013-04-25 04:01:00,
2013-04-24 21:06:00,52.0,38.5,30.05,West,270,0.0,0.0,60,0.00,,,0.00,meteohub,2013-04-25 04:06:00,
2013-04-24 21:11:00,51.8,38.8,30.05,West,270,0.0,0.0,61,0.00,,,0.00,meteohub,2013-04-25 04:11:00,
2013-04-24 21:16:00,51.8,39.2,30.05,West,270,0.0,0.0,62,0.00,,,0.00,meteohub,2013-04-25 04:16:00,
2013-04-24 21:21:00,51.6,39.0,30.05,West,270,0.0,0.0,62,0.00,,,0.00,meteohub,2013-04-25 04:21:00,
2013-04-24 21:26:00,51.4,38.5,30.05,West,270,0.0,0.0,61,0.00,,,0.00,meteohub,2013-04-25 04:26:00,
2013-04-24 21:31:00,51.3,38.7,30.05,West,270,0.0,0.0,62,0.00,,,0.00,meteohub,2013-04-25 04:31:00,
2013-04-24 21:36:00,51.3,38.7,30.05,West,270,0.0,0.0,62,0.00,,,0.00,meteohub,2013-04-25 04:36:00,
2013-04-24 21:41:00,51.1,38.8,30.05,West,270,0.0,0.0,63,0.00,,,0.00,meteohub,2013-04-25 04:41:00,
2013-04-24 21:46:00,50.9,38.8,30.05,West,270,0.0,0.0,63,0.00,,,0.00,meteohub,2013-04-25 04:46:00,
2013-04-24 21:51:00,50.7,38.7,30.04,West,270,0.0,0.0,63,0.00,,,0.00,meteohub,2013-04-25 04:51:00,
2013-04-24 21:56:00,50.7,38.7,30.05,West,270,0.0,0.0,63,0.00,,,0.00,meteohub,2013-04-25 04:56:00,
2013-04-24 22:01:00,50.5,37.9,30.05,West,270,0.0,0.0,62,0.00,,,0.00,meteohub,2013-04-25 05:01:00,
2013-04-24 22:06:00,50.4,38.3,30.05,West,270,0.0,0.0,63,0.00,,,0.00,meteohub,2013-04-25 05:06:00,
2013-04-24 22:11:00,50.2,38.1,30.04,West,270,0.0,0.0,63,0.00,,,0.00,meteohub,2013-04-25 05:11:00,
2013-04-24 22:16:00,50.0,38.3,30.04,West,270,0.0,0.0,64,0.00,,,0.00,meteohub,2013-04-25 05:16:00,
2013-04-24 22:21:00,49.8,37.8,30.04,West,270,0.0,0.0,63,0.00,,,0.00,meteohub,2013-04-25 05:21:00,
2013-04-24 22:26:00,49.6,37.9,30.05,West,270,0.0,0.0,64,0.00,,,0.00,meteohub,2013-04-25 05:26:00,
2013-04-24 22:31:00,49.5,37.8,30.04,West,270,0.0,0.0,64,0.00,,,0.00,meteohub,2013-04-25 05:31:00,
2013-04-24 22:36:00,49.3,37.2,30.05,West,270,0.0,0.0,63,0.00,,,0.00,meteohub,2013-04-25 05:36:00,
2013-04-24 22:41:00,48.7,36.3,30.05,West,270,0.0,0.0,62,0.00,,,0.00,meteohub,2013-04-25 05:41:00,
2013-04-24 22:46:00,49.3,36.3,30.05,West,270,0.0,0.0,61,0.00,,,0.00,meteohub,2013-04-25 05:46:00,
2013-04-24 22:51:00,49.3,36.3,30.04,West,270,0.0,0.0,61,0.00,,,0.00,meteohub,2013-04-25 05:51:00,
2013-04-24 22:56:00,49.3,35.6,30.04,West,270,0.0,0.0,59,0.00,,,0.00,meteohub,2013-04-25 05:56:00,
2013-04-24 23:01:00,49.3,35.1,30.04,West,270,0.0,0.0,58,0.00,,,0.00,meteohub,2013-04-25 06:01:00,
2013-04-24 23:06:00,49.3,35.1,30.04,West,270,0.0,0.0,58,0.00,,,0.00,meteohub,2013-04-25 06:06:00,
2013-04-24 23:11:00,48.7,34.2,30.04,West,270,0.0,0.0,57,0.00,,,0.00,meteohub,2013-04-25 06:11:00,
2013-04-24 23:16:00,49.1,35.4,30.04,West,270,0.0,0.0,59,0.00,,,0.00,meteohub,2013-04-25 06:16:00,
2013-04-24 23:21:00,48.4,34.7,30.03,West,270,0.0,0.0,59,0.00,,,0.00,meteohub,2013-04-25 06:21:00,
2013-04-24 23:26:00,48.7,35.4,30.04,West,270,0.0,0.0,60,0.00,,,0.00,meteohub,2013-04-25 06:26:00,
2013-04-24 23:31:00,48.6,35.2,30.03,West,270,0.0,0.0,60,0.00,,,0.00,meteohub,2013-04-25 06:31:00,
2013-04-24 23:36:00,48.4,35.1,30.03,West,270,0.0,0.0,60,0.00,,,0.00,meteohub,2013-04-25 06:36:00,
2013-04-24 23:41:00,48.2,34.5,30.03,West,270,0.0,0.0,59,0.00,,,0.00,meteohub,2013-04-25 06:41:00,
2013-04-24 23:46:00,48.0,33.4,30.04,West,270,0.0,0.0,57,0.00,,,0.00,meteohub,2013-04-25 06:46:00,
2013-04-24 23:51:00,48.0,34.0,30.04,West,270,0.0,0.0,58,0.00,,,0.00,meteohub,2013-04-25 06:51:00,
2013-04-24 23:56:00,47.7,34.0,30.03,West,270,0.0,0.0,59,0.00,,,0.00,meteohub,2013-04-25 06:56:00,